443  
ASUS43 KOAX 230310  
RWRNE  
 
WEATHER ROUNDUP FOR NEBRASKA  
NATIONAL WEATHER SERVICE OMAHA NE  
1000 PM CDT FRI SEP 22 2017  
 
NOTES: SATELLITE DATA IS BEING USED TO AUGMENT CLOUD COVER ABOVE  
12000 FEET.  
"FAIR" INDICATES FEW OR NO CLOUDS BELOW 12,000 FEET WITH NO  
SIGNIFICANT WEATHER AND/OR S TO VISIBILITY
.  
 
 
NEZ001>004-019>022-054>056-230400-  
NEBRASKA PANHANDLE  
 
CITY SKY/WX TMP DP RH WIND PRES REMARKS
 
SCOTTSBLUFF LGT RAIN 57 45 64 NE15 29.90R  
ALLIANCE CLEAR 54 41 61 NE20G26 29.88R  
CHADRON PTCLDY 53 38 56 NE14 29.95R  
GORDON FAIR 52 41 65 N12 29.94R  
KIMBALL CLOUDY 60 44 55 N10 29.90F  
SIDNEY CLEAR 59 46 62 NE14 29.87R  

 
 
NEZ057>060-069>072-079>082-230400-  
SOUTHWEST NEBRASKA  
 
CITY SKY/WX TMP DP RH WIND PRES REMARKS
 
NORTH PLATTE CLOUDY 67 53 61 NE24 29.80R  
IMPERIAL CLOUDY 82 52 35 S16G26 29.76R  
LEXINGTON PTCLDY 84 58 40 S17G26 29.78R  
MCCOOK PTCLDY 85 58 39 S22G32 29.76R  
OGALLALA CLOUDY 65 49 58 NE14G23 29.83R  

 
 
NEZ005>010-023>029-035>040-094-230400-  
NORTH CENTRAL NEBRASKA  
 
CITY SKY/WX TMP DP RH WIND PRES REMARKS
 
VALENTINE CLOUDY 57 44 62 N9 29.91R  
AINSWORTH MOCLDY 56 51 83 N16G22 29.89R  
BROKEN BOW CLOUDY 69 55 60 N13 29.81R  
O'NEILL CLOUDY 64 58 83 CALM 29.84R  
ORD MOCLDY 81 58 45 SE8 29.77R  
THEDFORD CLOUDY 60 51 71 N9 29.90R  

 
 
NEZ041-046>049-061>064-073>077-083>087-230400-  
SOUTH CENTRAL NEBRASKA  
 
CITY SKY/WX TMP DP RH WIND PRES REMARKS
 
GRAND ISLAND PTCLDY 82 65 56 S18G29 29.81R  
AURORA PTCLDY 82 64 54 S17G23 29.82R  
HASTINGS PTCLDY 83 61 47 S16G26 29.82R  
HEBRON PTCLDY 82 65 56 S10 29.87R  
HOLDREGE CLOUDY 82 60 46 S18G26 29.82R  
KEARNEY MOCLDY 82 63 52 S22G29 29.81R  
YORK PTCLDY 81 66 61 S15 29.84R  

 
 
NEZ011>018-030>034-042>045-230400-  
NORTHEAST NEBRASKA  
 
CITY SKY/WX TMP DP RH WIND PRES REMARKS
 
NORFOLK MOCLDY 81 66 60 SE17 29.80R  
ALBION MOCLDY 81 66 59 S13 29.80R  
BLAIR PTCLDY 82 67 61 S17G25 29.88R  
COLUMBUS CLEAR 82 68 62 SE16 29.82R  
FREMONT PTCLDY 82 66 58 SE16G22 29.85R  
TEKAMAH PTCLDY 78 67 68 SE10 29.84R  
WAYNE CLOUDY 82 68 64 S17G24 29.80S  

 
 
NEZ050>053-065>068-078-088>093-230400-  
SOUTHEAST NEBRASKA  
 
CITY SKY/WX TMP DP RH WIND PRES REMARKS
 
LINCOLN CLEAR 82 67 60 S18 29.86R  
OMAHA EPPLEY PTCLDY 83 67 58 S20 29.87R  
BEATRICE CLEAR 81 67 63 SE10G17 29.88R  
FALLS CITY CLEAR 78 69 73 SE8 29.91R  
NEBRASKA CITY CLEAR 79 69 71 S13 29.90R  
PLATTSMOUTH PTCLDY 80 69 68 SE12G17 29.89S  

 
 
NEZ044-045-051>053-067-230400-  
OMAHA AREA  
 
CITY SKY/WX TMP DP RH WIND PRES REMARKS
 
OMAHA EPPLEY PTCLDY 83 67 58 S20 29.87R  
BLAIR PTCLDY 82 67 61 S17G25 29.88R  
FREMONT PTCLDY 82 66 58 SE16G22 29.85R  
MILLARD PTCLDY 82 69 64 SE9 29.87R  
OFFUTT AFB PTCLDY 79 68 69 SE13 29.88R  
PLATTSMOUTH PTCLDY 80 69 68 SE12G17 29.89S  
WAHOO FAIR 80 66 61 SE13G18 29.86R  

 
 
 
CLICK HERE TO GO TO PREVIOUS BULLETINS.

The Nexlab NE Page Main Text Page